Torna al catalogo

CZ-2C R/B

AttivoSSO
NORAD 37731·ROCKET BODY·🇨🇳 China

Lanciato Jul 6, 2011 da Jiuquan Satellite Launch Center

Loading…

Prossimi Passaggi (prossime 24 ore)

TLE

AggiornatoSource: Space-Track

Epoca: Sep 14, 2026, 14:48 UTC

1 37731U 11030B   26257.61722090  .00000805  00000-0  10674-3 0  9999
2 37731  97.8750 211.4397 0053619  95.1577  77.8619 14.81620658818066

Traccia CZ-2C R/B in tempo reale con AllMySat

Download on the App Store